Flag for Germany Weather for the Past 2 Weeks in Rottenburg am Neckar, Baden-Württemberg, Germany

Now
59 °F

Passing clouds.


Feels Like: 56 °F
Forecast: 41 / 72 °F
Wind: 17 mph from East

Location: Stuttgart-Echterdingen

Current Time: May 5, 2016 at 1:22:59 PM

Latest Report: May 5, 2016 at 12:50 PM


Visibility: N/A

Pressure: 30.18 "Hg

Humidity: 48%

Dew Point: 39 °F

Location of Rottenburg am NeckarLocation

Historic Weather in Rottenburg am Neckar — Graph

°F

Rottenburg am Neckar Temperature Yesterday

Maximum temperature yesterday: 57 °F (at 1:50 PM)
Minimum temperature yesterday: 41 °F (at 4:20 AM)
Average temperature yesterday: 50 °F

High & Low Weather Summary for the Past Weeks

 TemperatureHumidityPressure
High68 °F (Apr 21, 3:50 PM)100% (Apr 24, 10:50 PM)30.36 "Hg (Apr 24, 10:50 PM)
Low30 °F (Apr 29, 3:50 AM)24% (Apr 21, 6:20 PM)29.56 "Hg (Apr 26, 5:50 AM)
Average47 °F70%30.01 "Hg
* Reported Apr 20 12:20 PM — May 5 12:20 PM, Rottenburg am Neckar, Weather by CustomWeather, © 2016

Note: Actual official high and low records may vary slightly from our data, if they occured in-between our weather recording intervals... More about our weather records

Advertising

Rottenburg am Neckar Weather History for the Previous 24 Hours

Scroll right to see more
 ConditionsComfort  
Time TempWeatherWind HumidityBarometerVisibility
12:20 PM
Thu, May 5
59 °FPassing clouds.16 mph51%30.21 "HgN/A
11:50 AM57 °FPassing clouds.17 mph51%30.21 "HgN/A
11:20 AM55 °FPassing clouds.18 mph59%30.21 "HgN/A
10:50 AM54 °FPassing clouds.14 mph63%30.21 "HgN/A
10:20 AM54 °FSunny.16 mph63%30.21 "Hg10 mi
9:50 AM50 °FPassing clouds.16 mph67%30.24 "HgN/A
9:20 AM50 °FSunny.14 mph71%30.24 "Hg10 mi
8:50 AM46 °FSunny.13 mph76%30.24 "Hg10 mi
8:20 AM46 °FPassing clouds.9 mph76%30.24 "HgN/A
7:50 AM45 °FPassing clouds.5 mph76%30.27 "HgN/A
7:20 AM43 °FSunny.3 mph81%30.27 "Hg10 mi
6:50 AM41 °FClear.2 mph81%30.27 "Hg10 mi
6:20 AM39 °FClear.2 mph81%30.27 "Hg10 mi
5:50 AM39 °FClear.1 mph81%30.27 "Hg10 mi
5:20 AM39 °FClear.2 mph81%30.27 "Hg10 mi
4:50 AM39 °FPassing clouds.3 mph75%30.27 "HgN/A
4:20 AM39 °FClear.2 mph70%30.27 "Hg10 mi
3:50 AM41 °FClear.2 mph66%30.27 "Hg10 mi
3:20 AM41 °FClear.1 mph66%30.27 "Hg10 mi
2:50 AM41 °FClear.2 mph66%30.27 "Hg10 mi
2:20 AM41 °FClear.1 mph61%30.27 "Hg10 mi
1:50 AM41 °FClear.2 mph61%30.27 "Hg10 mi
1:20 AM41 °FClear.2 mph66%30.30 "Hg10 mi
12:50 AM43 °FClear.2 mph57%30.30 "Hg10 mi
12:20 AM43 °FClear.3 mph61%30.30 "Hg10 mi
11:50 PM
Wed, May 4
45 °FClear.2 mph57%30.30 "Hg10 mi
11:20 PM45 °FClear.1 mph57%30.30 "Hg10 mi
10:50 PM46 °FClear.1 mph53%30.30 "Hg10 mi
10:20 PM48 °FPassing clouds.5 mph46%30.30 "HgN/A
9:50 PM48 °FClear.5 mph46%30.30 "Hg10 mi
9:20 PM52 °FSunny.8 mph38%30.30 "Hg10 mi
8:50 PM52 °FSunny.8 mph38%30.27 "Hg10 mi
8:20 PM54 °FSunny.7 mph30%30.30 "Hg10 mi
7:50 PM55 °FSunny.8 mph31%30.27 "Hg10 mi
7:20 PM55 °FPassing clouds.9 mph31%30.27 "HgN/A
6:50 PM57 °FPassing clouds.8 mph31%30.27 "HgN/A
6:20 PM57 °FPassing clouds.9 mph31%30.27 "HgN/A
5:50 PM57 °FSunny.6 mph33%30.27 "Hg10 mi
5:20 PM57 °FSunny.5 mph33%30.27 "Hg10 mi
4:50 PM57 °FPassing clouds.5 mph33%30.30 "HgN/A
4:20 PM57 °FSunny.9 mph33%30.30 "Hg10 mi
3:50 PM57 °FSunny.6 mph36%30.30 "Hg10 mi
3:20 PM57 °FSunny.8 mph41%30.30 "Hg10 mi
2:50 PM57 °FPassing clouds.7 mph41%30.30 "HgN/A
2:20 PM55 °FSunny.3 mph47%30.30 "Hg10 mi
1:50 PM57 °FSunny.5 mph41%30.33 "Hg10 mi
1:20 PM55 °FPassing clouds.5 mph44%30.33 "HgN/A
Weather by CustomWeather, © 2016

See weather overviewHow to use our weather pages